Location: Aubervilles
(48.9167°N, 2.3833°E)
Time: 16:14:45
(UTC+00:00)

CSL-04 Rocket - Pass Details

Date: 03 February 2023
Orbit: 806 x 859 km, 98.8° (Epoch: 30 March)

Event Time Altitude Azimuth Distance (km) Brightness Sun altitude
Exits shadow 18:47:07 36° 92° (E) 1,286 4.1 -19.3°
Maximum altitude 18:48:11 40° 65° (ENE) 1,206 4.0 -19.5°
Drops below altitude 10° 18:53:12 10° 358° (N) 2,450 6.1 -20.3°
Sets 18:55:42 0° 351° (N) 3,397 6.9 -20.7°
